EW7966 Weather Reports


time (UTC)temp
C
wind
direction
speed
KPH
gust
KPH
rain 1hr
cm
rain 24hr
cm
rain mn
cm
humidity
%
barometer
mb
20260906082005 17 188 0.0 8.0 0.00 0.00 0.00 64 1019.7
20260906081555 17 188 1.6 8.0 0.00 0.00 0.00 64 1002.2
20260906081508 17 188 1.6 8.0 0.00 0.00 0.00 64 1002.2
20260906080958 17 248 3.2 6.4 0.00 0.00 0.00 66 1019.8
20260906080505 16 248 4.8 6.4 0.00 0.00 0.00 68 1019.8
20260906080009 16 199 1.6 6.4 0.00 0.00 0.00 72 1002.1
20260906075505 16 199 3.2 9.7 0.00 0.00 0.00 74 1019.8
20260906075006 16 192 6.4 9.7 0.00 0.00 0.00 74 1019.8
20260906074506 16 165 3.2 8.0 0.00 0.00 0.00 74 1019.8
20260906074504 16 165 1.6 8.0 0.00 0.00 0.00 74 1002.2
20260906074005 16 165 3.2 4.8 0.00 0.00 0.00 72 1019.8
20260906073006 16 165 0.0 8.0 0.00 0.00 0.00 71 1019.9
20260906073003 16 165 0.0 8.0 0.00 0.00 0.00 71 1002.2
20260906072505 16 165 3.2 8.0 0.00 0.00 0.00 71 1019.9
20260906072006 16 165 3.2 8.0 0.00 0.00 0.00 70 1019.8
20260906071505 17 165 4.8 4.8 0.00 0.00 0.00 69 1019.8
20260906071503 17 165 3.2 4.8 0.00 0.00 0.00 69 1002.1
20260906071006 17 165 3.2 4.8 0.00 0.00 0.00 68 1019.8
20260906070505 18 165 0.0 4.8 0.00 0.00 0.00 65 1019.9
20260906070007 18 165 1.6 8.0 0.00 0.00 0.00 63 1019.9
20260906070003 18 165 0.0 8.0 0.00 0.00 0.00 63 1002.2
20260906065007 19 165 6.4 8.0 0.00 0.00 0.00 61 1020.0
20260906064506 19 212 3.2 4.8 0.00 0.00 0.00 63 1019.9
20260906064504 19 212 1.6 4.8 0.00 0.00 0.00 63 1002.2
20260906064005 19 212 1.6 4.8 0.00 0.00 0.00 62 1019.9
20260906063505 18 212 3.2 6.4 0.00 0.00 0.00 62 1019.9
20260906063005 19 212 1.6 8.0 0.00 0.00 0.00 64 1019.9
20260906063003 19 212 0.0 8.0 0.00 0.00 0.00 64 1002.1
20260906062505 19 313 4.8 8.0 0.00 0.00 0.00 63 1019.9
20260906062006 19 210 3.2 6.4 0.00 0.00 0.00 63 1019.8
20260906061505 19 210 3.2 6.4 0.00 0.00 0.00 64 1019.7
20260906061503 19 210 1.6 6.4 0.00 0.00 0.00 64 1001.8
20260906061006 19 210 3.2 11.3 0.00 0.00 0.00 64 1019.7
20260906060505 19 210 4.8 11.3 0.00 0.00 0.00 64 1019.7
20260906060007 19 290 4.8 6.4 0.00 0.00 0.00 64 1019.7
20260906060002 19 290 3.2 6.4 0.00 0.00 0.00 64 1001.7
20260906055505 19 290 3.2 6.4 0.00 0.00 0.00 64 1019.7
20260906054505 20 290 4.8 6.4 0.00 0.00 0.00 63 1019.9
20260906054007 20 290 3.2 6.4 0.00 0.00 0.00 62 1019.9
20260906053505 20 290 3.2 6.4 0.00 0.00 0.00 61 1019.9
20260906053009 21 290 3.2 6.4 0.00 0.00 0.00 60 1019.9
20260906053003 21 290 3.2 6.4 0.00 0.00 0.00 60 1001.8
20260906052506 21 290 0.0 6.4 0.00 0.00 0.00 59 1019.8
20260906052006 21 290 1.6 6.4 0.00 0.00 0.00 59 1019.8
20260906051503 21 290 3.2 6.4 0.00 0.00 0.00 59 1001.6
20260906051006 21 290 0.0 4.8 0.00 0.00 0.00 59 1019.8
20260906050506 22 290 1.6 11.3 0.00 0.00 0.00 58 1019.8
20260906050006 22 290 1.6 16.1 0.00 0.00 0.00 58 1019.9
20260906050002 22 290 1.6 16.1 0.00 0.00 0.00 58 1001.8
20260906045507 22 286 4.8 17.7 0.00 0.00 0.00 58 1019.9
20260906045006 21 300 11.3 17.7 0.00 0.00 0.00 59 1019.9
20260906044505 21 293 6.4 11.3 0.00 0.00 0.00 60 1019.9
20260906044503 21 293 4.8 11.3 0.00 0.00 0.00 60 1001.8
20260906044006 21 293 4.8 14.5 0.00 0.00 0.00 60 1020.0
20260906043504 21 302 4.8 14.5 0.00 0.00 0.00 59 1019.9
20260906043007 21 320 3.2 12.9 0.00 0.00 0.00 60 1019.8
20260906043004 21 320 3.2 12.9 0.00 0.00 0.00 60 1001.7
20260906042504 21 209 1.6 4.8 0.00 0.00 0.00 60 1019.8
20260906042006 21 209 1.6 4.8 0.00 0.00 0.00 60 1019.9
20260906041506 21 209 1.6 8.0 0.00 0.00 0.00 59 1019.9
20260906041006 22 209 1.6 9.7 0.00 0.00 0.00 59 1019.7
20260906040015 21 188 6.4 14.5 0.00 0.00 0.00 59 1001.6
20260906040008 21 188 8.0 14.5 0.00 0.00 0.00 59 1019.6
20260906035505 21 147 8.0 16.1 0.00 0.00 0.00 59 1019.7
20260906035006 21 234 8.0 20.9 0.00 0.00 0.00 59 1019.6
20260906034507 22 181 11.3 20.9 0.00 0.00 0.00 59 1001.7
20260906034007 22 192 11.3 19.3 0.00 0.00 0.00 59 1019.7
20260906033505 22 180 11.3 19.3 0.00 0.00 0.00 59 1019.7
20260906033010 22 167 12.9 17.7 0.00 0.00 0.00 59 1019.7
20260906033004 22 167 11.3 17.7 0.00 0.00 0.00 59 1001.8
20260906032505 21 187 12.9 17.7 0.00 0.00 0.00 59 1019.6
20260906032006 21 171 11.3 17.7 0.00 0.00 0.00 58 1019.5
20260906031504 21 180 11.3 17.7 0.00 0.00 0.00 58 1019.5
20260906031502 21 180 11.3 17.7 0.00 0.00 0.00 58 1001.8
20260906031007 22 162 11.3 17.7 0.00 0.00 0.00 57 1019.5
20260906030009 22 186 11.3 16.1 0.00 0.00 0.00 53 1001.7
20260906024601 22 166 11.3 25.7 0.00 0.00 0.00 51 1001.7
20260906024512 22 169 12.9 25.7 0.00 0.00 0.00 51 1001.7
20260906024505 22 169 14.5 25.7 0.00 0.00 0.00 51 1019.3
20260906024006 22 147 19.3 25.7 0.00 0.00 0.00 49 1019.2
20260906023505 23 154 16.1 38.6 0.00 0.00 0.00 48 1019.1
20260906023005 22 130 20.9 38.6 0.00 0.00 0.00 51 1001.5
20260906022505 22 202 1.6 4.8 0.00 0.00 0.00 40 1018.6
20260906021508 23 202 1.6 3.2 0.00 0.00 0.00 37 1000.9
20260906021505 23 202 3.2 3.2 0.00 0.00 0.00 37 1018.4
20260906021006 23 202 1.6 3.2 0.00 0.00 0.00 37 1018.4
20260906020505 23 202 0.0 0.0 0.00 0.00 0.00 38 1018.4
20260906020006 24 202 0.0 0.0 0.00 0.00 0.00 38 1018.3
20260906020004 24 202 0.0 0.0 0.00 0.00 0.00 38 1000.8
20260906015505 24 202 0.0 1.6 0.00 0.00 0.00 38 1018.3
20260906015009 25 202 0.0 1.6 0.00 0.00 0.00 34 1018.3
20260906014508 25 202 0.0 1.6 0.00 0.00 0.00 34 1000.8
20260906014505 25 202 0.0 1.6 0.00 0.00 0.00 34 1018.3
20260906014006 25 202 0.0 0.0 0.00 0.00 0.00 34 1018.3
20260906013105 25 202 0.0 1.6 0.00 0.00 0.00 33 1000.8
20260906012959 25 202 0.0 1.6 0.00 0.00 0.00 33 1018.3
20260906012505 25 202 0.0 6.4 0.00 0.00 0.00 34 1018.3
20260906012006 26 202 1.6 6.4 0.00 0.00 0.00 32 1018.3
20260906011505 26 161 3.2 9.7 0.00 0.00 0.00 31 1000.8
20260906011007 26 161 6.4 9.7 0.00 0.00 0.00 32 1018.2
20260906010505 26 161 3.2 4.8 0.00 0.00 0.00 34 1018.2
20260906010007 26 161 1.6 4.8 0.00 0.00 0.00 34 1018.4
20260906010004 26 161 1.6 4.8 0.00 0.00 0.00 34 1000.9
20260906005505 26 161 3.2 4.8 0.00 0.00 0.00 34 1018.5
20260906004505 26 161 3.2 8.0 0.00 0.00 0.00 31 1018.5
20260906004007 26 161 4.8 8.0 0.00 0.00 0.00 31 1018.5
20260906003505 26 161 6.4 9.7 0.00 0.00 0.00 31 1018.5
20260906003006 26 161 6.4 9.7 0.00 0.00 0.00 30 1018.5
20260906003003 26 161 4.8 9.7 0.00 0.00 0.00 30 1001.1
20260906002505 27 161 6.4 11.3 0.00 0.00 0.00 29 1018.4
20260906002008 27 161 6.4 11.3 0.00 0.00 0.00 29 1018.4
20260906001506 27 161 8.0 11.3 0.00 0.00 0.00 28 1018.3
20260906001503 27 161 6.4 11.3 0.00 0.00 0.00 28 1000.9
20260906001007 27 167 9.7 11.3 0.00 0.00 0.00 27 1018.4
20260906000008 28 164 8.0 12.9 0.00 0.00 0.00 27 1018.2
20260906000004 28 164 8.0 12.9 0.00 0.00 0.00 27 1000.7
20260905235507 28 169 6.4 11.3 0.00 0.00 0.00 27 1018.2
20260905235006 28 163 8.0 11.3 0.00 0.00 0.00 27 1018.2
20260905234506 28 168 4.8 9.7 0.00 0.00 0.00 27 1018.1
20260905234504 28 168 4.8 9.7 0.00 0.00 0.00 27 1000.6
20260905234006 28 194 6.4 12.9 0.00 0.00 0.00 26 1018.2
20260905233506 29 153 8.0 16.1 0.00 0.00 0.00 25 1018.0
20260905233006 28 157 8.0 12.9 0.00 0.00 0.00 25 1018.1
20260905233003 28 157 8.0 12.9 0.00 0.00 0.00 25 1000.6
20260905232505 28 165 8.0 12.9 0.00 0.00 0.00 27 1018.0
20260905232001 28 144 6.4 12.9 0.00 0.00 0.00 26 1018.1
20260905231505 28 163 9.7 16.1 0.00 0.00 0.00 27 1018.1
20260905231006 28 165 9.7 16.1 0.00 0.00 0.00 28 1018.1
20260905230110 28 163 6.4 16.1 0.00 0.00 0.00 27 1000.7
20260905225505 28 188 8.0 16.1 0.00 0.00 0.00 27 1018.2
20260905224505 28 167 11.3 17.7 0.00 0.00 0.00 27 1000.7
20260905224006 28 171 8.0 11.3 0.00 0.00 0.00 27 1018.2
20260905223505 28 153 8.0 12.9 0.00 0.00 0.00 26 1018.1
20260905223008 28 149 6.4 16.1 0.00 0.00 0.00 25 1018.1
20260905223004 28 149 6.4 16.1 0.00 0.00 0.00 25 1000.6
20260905222006 29 161 12.9 19.3 0.00 0.00 0.00 25 1018.2
20260905221506 29 151 12.9 17.7 0.00 0.00 0.00 26 1018.2
20260905221504 29 151 11.3 17.7 0.00 0.00 0.00 26 1000.7
20260905221005 28 125 14.5 17.7 0.00 0.00 0.00 26 1018.2
20260905220458 28 108 11.3 16.1 0.00 0.00 0.00 25 1018.2
20260905220004 28 147 8.0 12.9 0.00 0.00 0.00 26 1000.8
20260905215505 28 117 3.2 6.4 0.00 0.00 0.00 26 1018.2
20260905214508 28 150 3.2 8.0 0.00 0.00 0.00 24 1018.3
20260905214503 28 150 3.2 8.0 0.00 0.00 0.00 24 1000.8
20260905213007 28 129 9.7 16.1 0.00 0.00 0.00 25 1018.4
20260905213003 28 129 9.7 16.1 0.00 0.00 0.00 25 1000.9
20260905212505 28 113 8.0 12.9 0.00 0.00 0.00 26 1018.3
20260905212006 28 93 1.6 9.7 0.00 0.00 0.00 25 1018.4
20260905211603 28 86 6.4 9.7 0.00 0.00 0.00 25 1001.0
20260905211458 28 71 4.8 12.9 0.00 0.00 0.00 25 1018.5
20260905211005 28 68 3.2 16.1 0.00 0.00 0.00 24 1018.5
20260905210506 28 85 9.7 16.1 0.00 0.00 0.00 24 1018.6
20260905210006 28 106 9.7 16.1 0.00 0.00 0.00 24 1018.6
20260905210004 28 106 8.0 16.1 0.00 0.00 0.00 24 1001.1
20260905205006 29 346 8.0 20.9 0.00 0.00 0.00 24 1018.7
20260905204504 30 88 6.4 20.9 0.00 0.00 0.00 24 1001.3
20260905204006 30 45 6.4 19.3 0.00 0.00 0.00 24 1018.7
20260905203505 29 57 11.3 19.3 0.00 0.00 0.00 25 1018.9
20260905203004 29 101 6.4 22.5 0.00 0.00 0.00 24 1001.5
20260905202506 30 59 16.1 22.5 0.00 0.00 0.00 24 1019.0
20260905202006 30 36 4.8 22.5 0.00 0.00 0.00 26 1019.0
20260905201505 30 73 6.4 17.7 0.00 0.00 0.00 24 1019.1
20260905201503 30 73 6.4 17.7 0.00 0.00 0.00 24 1001.7
20260905201009 30 59 6.4 17.7 0.00 0.00 0.00 25 1019.1
20260905200505 29 355 6.4 14.5 0.00 0.00 0.00 25 1019.2
20260905200007 29 48 6.4 20.9 0.00 0.00 0.00 24 1001.8
20260905195505 30 67 14.5 20.9 0.00 0.00 0.00 24 1019.4
20260905195006 30 39 9.7 19.3 0.00 0.00 0.00 24 1019.4
20260905194507 30 355 6.4 19.3 0.00 0.00 0.00 25 1019.4
20260905194504 30 355 6.4 19.3 0.00 0.00 0.00 25 1002.0
20260905194005 30 322 6.4 17.7 0.00 0.00 0.00 23 1019.4
20260905193506 30 330 8.0 20.9 0.00 0.00 0.00 24 1019.5
20260905193006 30 333 9.7 20.9 0.00 0.00 0.00 25 1019.6
20260905193004 30 333 8.0 20.9 0.00 0.00 0.00 25 1002.2
20260905192506 30 331 9.7 22.5 0.00 0.00 0.00 24 1019.5
20260905192006 29 341 6.4 24.1 0.00 0.00 0.00 26 1019.6
20260905191503 28 348 11.3 24.1 0.00 0.00 0.00 25 1002.1
20260905191006 28 29 16.1 24.1 0.00 0.00 0.00 24 1019.7
20260905190008 29 350 11.3 22.5 0.00 0.00 0.00 25 1019.7
20260905190004 29 350 11.3 22.5 0.00 0.00 0.00 25 1002.3
20260905185506 28 355 8.0 24.1 0.00 0.00 0.00 26 1019.8
20260905184505 28 22 11.3 22.5 0.00 0.00 0.00 25 1002.5
20260905184007 28 37 14.5 24.1 0.00 0.00 0.00 24 1019.9
20260905183506 28 18 17.7 25.7 0.00 0.00 0.00 26 1019.9
20260905183007 28 26 12.9 25.7 0.00 0.00 0.00 25 1020.0
20260905183003 28 31 11.3 25.7 0.00 0.00 0.00 25 1002.6
20260905182505 28 5 4.8 20.9 0.00 0.00 0.00 26 1020.1
20260905182006 28 355 9.7 27.4 0.00 0.00 0.00 26 1020.2
20260905181505 27 5 11.3 27.4 0.00 0.00 0.00 26 1020.1
20260905181503 27 5 9.7 27.4 0.00 0.00 0.00 26 1002.7
20260905181006 27 49 17.7 30.6 0.00 0.00 0.00 25 1020.2
20260905180505 27 29 16.1 30.6 0.00 0.00 0.00 25 1020.2
20260905180004 28 17 16.1 29.0 0.00 0.00 0.00 26 1002.8
20260905175505 28 44 17.7 29.0 0.00 0.00 0.00 26 1020.3
20260905174503 27 5 14.5 25.7 0.00 0.00 0.00 27 1002.8
20260905174006 27 11 9.7 30.6 0.00 0.00 0.00 26 1020.3
20260905173505 27 21 14.5 30.6 0.00 0.00 0.00 27 1020.3
20260905173007 27 28 16.1 27.4 0.00 0.00 0.00 27 1020.4
20260905173005 27 28 16.1 27.4 0.00 0.00 0.00 27 1003.0
20260905172505 27 55 16.1 27.4 0.00 0.00 0.00 27 1020.4
20260905172007 27 336 11.3 27.4 0.00 0.00 0.00 27 1020.4
20260905171505 27 22 16.1 27.4 0.00 0.00 0.00 28 1020.5
20260905171006 27 360 8.0 24.1 0.00 0.00 0.00 29 1020.5
20260905170505 27 360 12.9 24.1 0.00 0.00 0.00 28 1020.5
20260905170007 27 10 6.4 19.3 0.00 0.00 0.00 30 1020.5
20260905170005 27 10 6.4 19.3 0.00 0.00 0.00 30 1003.0
20260905165506 27 336 9.7 24.1 0.00 0.00 0.00 30 1020.4
20260905164505 27 20 12.9 19.3 0.00 0.00 0.00 28 1020.5
20260905163505 27 25 6.4 20.9 0.00 0.00 0.00 31 1020.5
20260905163007 26 14 11.3 19.3 0.00 0.00 0.00 31 1020.4
20260905163004 26 14 11.3 19.3 0.00 0.00 0.00 31 1003.0
20260905162506 26 19 6.4 19.3 0.00 0.00 0.00 31 1020.4
20260905162007 26 27 11.3 20.9 0.00 0.00 0.00 31 1020.3
20260905161505 26 22 14.5 20.9 0.00 0.00 0.00 30 1020.3
20260905161503 26 22 12.9 20.9 0.00 0.00 0.00 30 1002.8
20260905161007 26 36 11.3 19.3 0.00 0.00 0.00 29 1020.2
20260905160007 26 327 8.0 17.7 0.00 0.00 0.00 31 1020.1
20260905160004 26 327 8.0 17.7 0.00 0.00 0.00 31 1002.6
20260905155506 26 5 8.0 17.7 0.00 0.00 0.00 33 1020.1
20260905155007 25 20 4.8 16.1 0.00 0.00 0.00 34 1020.1
20260905154506 25 314 6.4 16.1 0.00 0.00 0.00 35 1020.1
20260905154503 25 314 4.8 16.1 0.00 0.00 0.00 35 1002.6
20260905154007 25 309 9.7 16.1 0.00 0.00 0.00 35 1020.1
20260905153506 24 319 6.4 14.5 0.00 0.00 0.00 37 1020.1
20260905153008 24 318 4.8 14.5 0.00 0.00 0.00 38 1020.1
20260905153004 24 318 4.8 14.5 0.00 0.00 0.00 38 1002.6
20260905152505 23 254 9.7 16.1 0.00 0.00 0.00 38 1020.0
20260905152006 23 304 9.7 16.1 0.00 0.00 0.00 40 1020.0
20260905151505 23 313 8.0 12.9 0.00 0.00 0.00 40 1020.0
20260905151503 23 313 6.4 12.9 0.00 0.00 0.00 40 1002.5
20260905150504 23 298 11.3 19.3 0.00 0.00 0.00 40 1019.9
20260905150007 23 288 11.3 19.3 0.00 0.00 0.00 40 1019.9
20260905150004 23 288 11.3 19.3 0.00 0.00 0.00 40 1002.5
20260905145505 23 301 4.8 20.9 0.00 0.00 0.00 41 1019.9
20260905145006 22 292 9.7 20.9 0.00 0.00 0.00 41 1019.9
20260905144504 22 286 8.0 19.3 0.00 0.00 0.00 41 1002.6
20260905144006 22 297 8.0 14.5 0.00 0.00 0.00 43 1019.9
20260905143505 22 286 6.4 14.5 0.00 0.00 0.00 44 1019.9
20260905143007 21 294 6.4 12.9 0.00 0.00 0.00 46 1019.9
20260905142505 21 259 6.4 12.9 0.00 0.00 0.00 47 1019.9
20260905141506 20 265 4.8 9.7 0.00 0.00 0.00 49 1019.7
20260905141504 20 265 4.8 9.7 0.00 0.00 0.00 49 1002.5
20260905141007 20 274 4.8 9.7 0.00 0.00 0.00 51 1019.7
20260905140505 20 294 3.2 8.0 0.00 0.00 0.00 53 1019.7
20260905140009 19 226 4.8 11.3 0.00 0.00 0.00 54 1019.7
20260905140005 19 226 3.2 11.3 0.00 0.00 0.00 54 1002.4
20260905135506 18 223 3.2 11.3 0.00 0.00 0.00 58 1019.7
20260905135005 18 206 4.8 8.0 0.00 0.00 0.00 59 1019.6
20260905134557 18 236 3.2 8.0 0.00 0.00 0.00 61 1002.3
20260905134459 18 237 4.8 8.0 0.00 0.00 0.00 62 1019.6
20260905134006 17 241 3.2 8.0 0.00 0.00 0.00 63 1019.5
20260905133506 17 230 4.8 8.0 0.00 0.00 0.00 64 1019.5
20260905133006 17 218 4.8 6.4 0.00 0.00 0.00 65 1019.5
20260905133003 17 218 3.2 6.4 0.00 0.00 0.00 65 1002.2
20260905132505 17 218 1.6 3.2 0.00 0.00 0.00 66 1019.5
20260905132006 16 218 0.0 1.6 0.00 0.00 0.00 68 1019.4
20260905131609 16 218 0.0 3.2 0.00 0.00 0.00 68 1002.2
20260905131500 16 218 0.0 3.2 0.00 0.00 0.00 69 1019.4
20260905131006 16 218 0.0 4.8 0.00 0.00 0.00 69 1019.4
20260905130506 16 218 1.6 4.8 0.00 0.00 0.00 69 1019.2
20260905130007 15 218 3.2 4.8 0.00 0.00 0.00 70 1019.0
20260905130004 15 218 1.6 4.8 0.00 0.00 0.00 70 1001.7
20260905125505 15 218 3.2 6.4 0.00 0.00 0.00 71 1019.0
20260905125007 15 218 3.2 8.0 0.00 0.00 0.00 72 1018.9
20260905124505 15 237 3.2 8.0 0.00 0.00 0.00 73 1001.5
20260905124005 15 237 3.2 6.4 0.00 0.00 0.00 73 1018.8
20260905123011 15 237 3.2 11.3 0.00 0.00 0.00 73 1001.3
20260905123006 15 237 4.8 11.3 0.00 0.00 0.00 73 1018.7
20260905122505 15 196 3.2 12.9 0.00 0.00 0.00 74 1018.7
20260905122006 15 212 4.8 12.9 0.00 0.00 0.00 74 1018.6
20260905121505 15 206 6.4 11.3 0.00 0.00 0.00 75 1018.5
20260905121503 15 206 6.4 11.3 0.00 0.00 0.00 75 1001.1
20260905121006 15 215 3.2 9.7 0.00 0.00 0.00 75 1018.5
20260905120505 15 168 4.8 9.7 0.00 0.00 0.00 76 1018.4
20260905120007 15 199 4.8 11.3 0.00 0.00 0.00 77 1018.4
20260905120004 15 199 3.2 11.3 0.00 0.00 0.00 77 1000.9
20260905115505 15 200 6.4 11.3 0.00 0.00 0.00 78 1018.4
20260905115006 15 213 6.4 9.7 0.00 0.00 0.00 78 1018.4
20260905114505 15 221 4.8 8.0 0.00 0.00 0.00 78 1018.4
20260905114006 15 213 4.8 8.0 0.00 0.00 0.00 77 1018.5
20260905113505 15 252 3.2 8.0 0.00 0.00 0.00 76 1018.6
20260905113007 15 225 3.2 8.0 0.00 0.00 0.00 77 1018.6
20260905113003 15 225 3.2 8.0 0.00 0.00 0.00 77 1001.1
20260905112006 15 196 4.8 9.7 0.00 0.00 0.00 78 1018.6
20260905111505 15 217 4.8 9.7 0.00 0.00 0.00 79 1018.6
20260905111503 15 217 4.8 9.7 0.00 0.00 0.00 79 1001.2
20260905111006 15 212 4.8 8.0 0.00 0.00 0.00 79 1018.6
20260905110100 15 205 3.2 8.0 0.00 0.00 0.00 79 1001.3
20260905110001 15 205 4.8 8.0 0.00 0.00 0.00 79 1018.6
20260905105505 15 205 3.2 9.7 0.00 0.00 0.00 78 1018.6
20260905104503 15 230 1.6 9.7 0.00 0.00 0.00 78 1001.2
20260905104006 15 230 6.4 9.7 0.00 0.00 0.00 77 1018.5
20260905103006 15 203 4.8 9.7 0.00 0.00 0.00 78 1018.6
20260905103004 15 203 3.2 9.7 0.00 0.00 0.00 78 1001.2
20260905102505 15 189 4.8 9.7 0.00 0.00 0.00 78 1018.6
20260905102005 15 169 3.2 9.7 0.00 0.00 0.00 78 1018.7
20260905101506 15 198 4.8 11.3 0.00 0.00 0.00 79 1018.6
20260905101504 15 198 3.2 11.3 0.00 0.00 0.00 79 1001.3
20260905101006 15 195 4.8 12.9 0.00 0.00 0.00 79 1018.8
20260905100505 15 190 6.4 12.9 0.00 0.00 0.00 79 1018.7
20260905100007 15 188 8.0 12.9 0.00 0.00 0.00 78 1018.7
20260905100005 15 188 8.0 12.9 0.00 0.00 0.00 78 1001.4
20260905095505 15 212 3.2 12.9 0.00 0.00 0.00 78 1018.8
20260905095006 15 191 6.4 9.7 0.00 0.00 0.00 77 1018.8
20260905094504 15 181 6.4 11.3 0.00 0.00 0.00 77 1018.8
20260905094006 15 181 4.8 11.3 0.00 0.00 0.00 77 1018.8
20260905093505 14 169 6.4 8.0 0.00 0.00 0.00 77 1018.8
20260905093003 14 169 1.6 4.8 0.00 0.00 0.00 75 1001.5
20260905092007 15 169 1.6 6.4 0.00 0.00 0.00 73 1018.9
20260905091505 15 169 0.0 8.0 0.00 0.00 0.00 71 1019.0
20260905091503 15 169 0.0 8.0 0.00 0.00 0.00 71 1001.8
20260905091006 15 169 4.8 8.0 0.00 0.00 0.00 73 1018.9
20260905090506 15 169 3.2 6.4 0.00 0.00 0.00 72 1019.0
20260905090007 16 169 3.2 4.8 0.00 0.00 0.00 69 1019.1
20260905090004 16 169 1.6 4.8 0.00 0.00 0.00 69 1001.8
20260905085505 16 169 1.6 4.8 0.00 0.00 0.00 69 1019.1
20260905085006 16 169 3.2 6.4 0.00 0.00 0.00 68 1019.1
20260905084506 16 169 4.8 9.7 0.00 0.00 0.00 68 1019.0
20260905084503 16 169 3.2 9.7 0.00 0.00 0.00 68 1001.7
20260905083505 16 203 3.2 4.8 0.00 0.00 0.00 67 1019.1
20260905083006 17 203 1.6 6.4 0.00 0.00 0.00 66 1018.9